TimeCEST,TemperatureF,Dew PointF,Humidity,Sea Level PressureIn,VisibilityMPH,Wind Direction,Wind SpeedMPH,Gust SpeedMPH,PrecipitationIn,Events,Conditions,WindDirDegrees,DateUTC
12:00 AM,60.8,57.2,88,30.04,6.2,Variable,3.5,-,N/A,,Scattered Clouds,0,2013-06-27 22:00:00
1:00 AM,59.0,55.4,88,30.04,6.2,East,5.8,-,N/A,,Scattered Clouds,80,2013-06-27 23:00:00
1:30 AM,59.0,53.6,82,30.04,6.2,East,5.8,-,N/A,,Unknown,80,2013-06-27 23:30:00
2:00 AM,58,54,82,30.06,25,ENE,4.6,,,,Clear,70,2013-06-28 00:00:00
2:00 AM,57.2,53.6,88,30.04,6.2,ENE,4.6,-,N/A,,Unknown,70,2013-06-28 00:00:00
2:30 AM,55.4,51.8,88,30.04,6.2,ENE,6.9,-,N/A,,Unknown,60,2013-06-28 00:30:00
3:00 AM,57.2,53.6,88,30.04,6.2,ENE,6.9,-,N/A,,Unknown,70,2013-06-28 01:00:00
3:30 AM,57.2,50.0,77,30.01,6.2,NE,9.2,-,N/A,,Unknown,50,2013-06-28 01:30:00
4:00 AM,57.2,51.8,82,30.01,6.2,NE,4.6,-,N/A,,Unknown,50,2013-06-28 02:00:00
4:30 AM,57.2,53.6,88,30.01,6.2,NE,6.9,-,N/A,,Unknown,50,2013-06-28 02:30:00
5:00 AM,55.4,51.8,88,30.01,6.2,NE,6.9,-,N/A,,Unknown,40,2013-06-28 03:00:00
5:30 AM,55.4,51.8,88,30.01,6.2,NE,8.1,-,N/A,,Unknown,50,2013-06-28 03:30:00
6:00 AM,55.4,51.8,88,30.01,6.2,NE,8.1,-,N/A,,Unknown,40,2013-06-28 04:00:00
6:30 AM,55.4,51.8,88,30.01,6.2,NE,5.8,-,N/A,,Unknown,40,2013-06-28 04:30:00
7:00 AM,57.2,51.8,82,30.01,6.2,NE,6.9,-,N/A,,Partly Cloudy,40,2013-06-28 05:00:00
7:30 AM,59.0,51.8,77,30.01,6.2,NE,6.9,-,N/A,,Partly Cloudy,50,2013-06-28 05:30:00
8:00 AM,63,52,58,30.03,16,NE,5.8,,,,Scattered Clouds,40,2013-06-28 06:00:00
8:00 AM,62.6,51.8,68,30.01,6.2,NE,5.8,-,N/A,,Partly Cloudy,40,2013-06-28 06:00:00
8:30 AM,66.2,51.8,60,30.01,6.2,NE,4.6,-,N/A,,Partly Cloudy,40,2013-06-28 06:30:00
9:00 AM,69.8,50.0,49,30.01,6.2,Variable,2.3,-,N/A,,Partly Cloudy,0,2013-06-28 07:00:00
9:30 AM,69.8,53.6,56,30.01,6.2,Variable,3.5,-,N/A,,Partly Cloudy,0,2013-06-28 07:30:00
10:00 AM,69.8,53.6,56,30.01,6.2,SW,5.8,-,N/A,,Partly Cloudy,220,2013-06-28 08:00:00
10:30 AM,71.6,57.2,60,30.01,6.2,SW,6.9,-,N/A,,Partly Cloudy,220,2013-06-28 08:30:00
11:00 AM,71.6,57.2,60,30.01,6.2,SW,9.2,-,N/A,,Partly Cloudy,220,2013-06-28 09:00:00
11:30 AM,73.4,57.2,57,30.01,6.2,South,9.2,-,N/A,,Partly Cloudy,190,2013-06-28 09:30:00
12:00 PM,75.2,59.0,57,30.01,6.2,SSW,8.1,-,N/A,,Partly Cloudy,210,2013-06-28 10:00:00
12:30 PM,75.2,60.8,61,30.04,6.2,SW,15.0,-,N/A,,Partly Cloudy,220,2013-06-28 10:30:00
1:00 PM,77.0,59.0,54,30.01,6.2,South,11.5,-,N/A,,Partly Cloudy,190,2013-06-28 11:00:00
1:30 PM,77.0,55.4,47,30.01,6.2,SW,4.6,-,N/A,,Mostly Cloudy,230,2013-06-28 11:30:00
2:00 PM,77,55,36,30.02,16,SW,5.8,,,,Partly Cloudy,220,2013-06-28 12:00:00
2:00 PM,77.0,55.4,47,30.01,6.2,SW,5.8,-,N/A,,Mostly Cloudy,220,2013-06-28 12:00:00
2:30 PM,77.0,53.6,44,30.01,6.2,SW,8.1,-,N/A,,Mostly Cloudy,220,2013-06-28 12:30:00
3:00 PM,78.8,51.8,39,30.01,6.2,SSW,8.1,-,N/A,,Mostly Cloudy,210,2013-06-28 13:00:00
3:30 PM,75.2,50.0,41,30.01,6.2,West,10.4,-,N/A,,Mostly Cloudy,280,2013-06-28 13:30:00
4:00 PM,75.2,50.0,41,30.01,6.2,West,5.8,-,N/A,,Mostly Cloudy,270,2013-06-28 14:00:00
4:30 PM,75.2,50.0,41,30.01,6.2,WNW,10.4,-,N/A,,Mostly Cloudy,300,2013-06-28 14:30:00
5:00 PM,75.2,53.6,47,30.01,6.2,WNW,6.9,-,N/A,,Mostly Cloudy,290,2013-06-28 15:00:00
5:30 PM,75.2,51.8,44,30.01,6.2,Variable,2.3,-,N/A,,Mostly Cloudy,0,2013-06-28 15:30:00
6:00 PM,73.4,53.6,50,30.01,6.2,South,9.2,-,N/A,,Mostly Cloudy,180,2013-06-28 16:00:00
6:30 PM,71.6,53.6,53,30.01,6.2,NW,12.7,-,N/A,,Mostly Cloudy,310,2013-06-28 16:30:00
7:00 PM,69.8,53.6,56,30.01,6.2,NNW,3.5,-,N/A,Rain,Light Rain,340,2013-06-28 17:00:00
7:30 PM,71.6,53.6,53,30.01,6.2,Variable,3.5,-,N/A,,Mostly Cloudy,0,2013-06-28 17:30:00
8:00 PM,72,53,41,30.05,12,WNW,4.6,,,,Partly Cloudy,300,2013-06-28 18:00:00
8:00 PM,71.6,51.8,50,30.04,6.2,NW,3.5,-,N/A,,Mostly Cloudy,310,2013-06-28 18:00:00
8:30 PM,69.8,55.4,60,30.04,6.2,WNW,11.5,-,N/A,,Mostly Cloudy,300,2013-06-28 18:30:00
9:00 PM,68.0,55.4,64,30.04,6.2,NW,8.1,-,N/A,,Mostly Cloudy,310,2013-06-28 19:00:00
9:30 PM,68.0,55.4,64,30.06,6.2,North,3.5,-,N/A,,Mostly Cloudy,10,2013-06-28 19:30:00
10:00 PM,66.2,55.4,68,30.06,-9999.0,ESE,3.5,-,N/A,,Clear,110,2013-06-28 20:00:00
10:30 PM,66.2,55.4,68,30.06,-9999.0,NE,4.6,-,N/A,,Clear,50,2013-06-28 20:30:00
11:00 PM,62.6,55.4,77,30.06,-9999.0,NE,4.6,-,N/A,,Clear,50,2013-06-28 21:00:00
11:30 PM,60.8,53.6,77,30.06,-9999.0,NE,5.8,-,N/A,,Clear,50,2013-06-28 21:30:00